Regional Weather Roundup
Issued by NWS

Home | Current Version | Previous Version | Text Only | Print | Product List | Glossary Off
Versions: 1 2 3 4 5 6 7 8 9 10 11 12 13 14 15 16 17 18 19 20 21 22 23 24 25 26 27 28 29 30 31 32 33 34 35 36 37 38 39 40 41 42 43 44 45 46 47 48 49 50

000
ASUS43 KDTX 210210
RWRMI
MICHIGAN HOURLY REGIONAL WEATHER ROUNDUP
NATIONAL WEATHER SERVICE DETROIT/PONTIAC MI
900 PM EST SAT DEC 20 2014

NOTE: "FAIR" INDICATES FEW OR NO CLOUDS BELOW 12,000 FEET WITH NO
SIGNIFICANT WEATHER AND/OR OBSTRUCTION TO VISIBILITY.

MIZ047>049-052>055-059>063-066>070-074>076-081>083-210300-
SOUTHEAST LOWER MICHIGAN

CITY           SKY/WX    TMP DP  RH WIND       PRES   REMARKS
ADRIAN         CLOUDY    29  23  78 CALM      30.30R
ALMA           CLOUDY    27  25  94 CALM      30.27F
ANN ARBOR      CLOUDY    29  24  82 CALM      30.28S
BAD AXE        MOCLDY    24  21  91 CALM      30.28F
CARO           CLOUDY    26  22  85 CALM      30.27F
DETROIT CITY   CLOUDY    32  22  66 CALM      30.30S
DETROIT        CLOUDY    30  23  75 S3        30.30S
FLINT          MOCLDY    28  21  75 CALM      30.28S
GROSSE ILE     CLOUDY    30  23  74 CALM      30.29S
HILLSDALE      CLOUDY    23  21  92 CALM      30.26S
HOWELL         CLOUDY    27  22  80 S3        30.27S

CITY           SKY/WX    TMP DP  RH WIND       PRES   REMARKS
JACKSON        CLOUDY    24  21  88 CALM      30.27S
LAMBERTVILLE   CLOUDY    32  27  80 CALM      30.30R
LANSING        MOCLDY    25  20  81 CALM      30.28S
LAPEER         CLOUDY    28  22  79 S3        30.28S
MASON          CLEAR     26  23  86 CALM      30.27S
MONROE         CLOUDY    30  25  80 CALM      30.28S
MT. CLEMENS    CLOUDY    28  24  84 CALM      30.28R
PONTIAC        CLOUDY    28  20  71 SW3       30.26F
PORT HOPE        N/A     25  20  81 CALM      30.27F
PORT HURON     CLOUDY    27  23  86 CALM      30.29S
TRI CITIES     PTCLDY    27  22  81 CALM      30.29S
TROY           CLOUDY    32  21  63 CALM      30.30S
SAGINAW HB     PTCLDY    28  25  86 CALM      30.28S
$$
MIZ043>046-050>051-056>058-064>065-071>073-077>080-210300-
SOUTHWEST LOWER MICHIGAN

CITY           SKY/WX    TMP DP  RH WIND       PRES   REMARKS
BATTLE CREEK   CLOUDY    31  25  78 S5        30.27S WCI  26
BENTON HARBOR  CLOUDY    31  26  82 S5        30.27S WCI  26
BIG RAPIDS     CLOUDY    30  27  88 CALM      30.24S
COLDWATER      CLOUDY    29  26  87 MISG      30.27F
FREMONT        CLOUDY    29  28  98 CALM      30.25S FOG
HOLLAND        CLOUDY    32  28  85 S7        30.27S FOG     WCI  26
GRAND RAPIDS   LGT SNOW  30  24  78 S5        30.27S WCI  25
IONIA          CLOUDY    30  24  78 S5        30.26S WCI  26
KALAMAZOO      CLOUDY    30  27  88 S3        30.27F FOG
LUDINGTON      CLOUDY    31  27  86 SE5       30.26S WCI  26
MARSHALL       CLOUDY    28  23  82 CALM      30.27R
MOUNT PLEASANT CLOUDY    22  21  96 CALM      30.26S
MUSKEGON       LGT SNOW  31  26  82 SE7       30.26F WCI  24
SOUTH HAVEN    CLOUDY    32  27  81 S3        30.26F
$$
MIZ016>042-210300-
NORTHERN LOWER MICHIGAN

CITY           SKY/WX    TMP DP  RH WIND       PRES   REMARKS
ALPENA         CLOUDY    25  22  88 CALM      30.27F
BEAVER ISLAND  CLOUDY    30  26  86 CALM      30.24F
BELLAIRE       CLOUDY    27  24  86 CALM      30.26F
CADILLAC       CLOUDY    26  22  86 E3        30.21S
CHARLEVOIX     CLOUDY    28  24  85 SE6       30.27F WCI  21
FRANKFORT      CLOUDY    29  24  82 S3        30.25S
GAYLORD        MOCLDY    22  18  85 CALM      30.21F
GRAYLING       MOCLDY    16  14  95 CALM      30.24F FOG
HARBOR SPRINGS MOCLDY    22  18  84 NE6       30.25S WCI  14
HOUGHTON LAKE  CLOUDY    17  15  92 CALM      30.24F
MANISTEE       CLOUDY    27  21  80 SE3       30.26S
OSCODA         MOCLDY    21  20  96 CALM      30.27F
PELLSTON       CLOUDY    16  14  92 CALM      30.26F
ROGERS CITY    MOCLDY    17  17  98 CALM      30.27F
TRAVERSE CITY  CLOUDY    29  22  75 SE5       30.24F WCI  24
$$
MIZ007>008-015-210300-
EASTERN UPPER MICHIGAN

CITY           SKY/WX    TMP DP  RH WIND       PRES   REMARKS
KINROSS        MOCLDY    23  21  93 E8        30.24F WCI  14
MACKINAC ISLAN CLOUDY    26  21  83 SE5       30.25S WCI  20
NEWBERRY       CLOUDY    24  23  93 SE3       30.22F
S. S. MARIE    CLOUDY    24  18  77 E5        30.26R WCI  18
MUNISING         N/A     30  22  72 S7        30.20F WCI  23
$$
MIZ004>006-011>014-085-210300-
CENTRAL UPPER MICHIGAN

CITY           SKY/WX    TMP DP  RH WIND       PRES   REMARKS
MANISTIQUE     CLOUDY    23  22  97 CALM      30.23S
ESCANABA       CLOUDY    27  21  80 CALM      30.22F
MENOMINEE      CLOUDY    28  25  86 CALM      30.23S
SAWYER-GWINN   CLOUDY    27  23  86 S7        30.17F WCI  19
$$
MIZ001>003-009>011-084-210300-
WESTERN UPPER MICHIGAN

CITY           SKY/WX    TMP DP  RH WIND       PRES   REMARKS
IRON MOUNTAIN  CLOUDY    27  23  85 SE6       30.17F WCI  20
HOUGHTON       CLOUDY    27  24  89 CALM      30.13F
COPPER HARBOR    N/A     30  25  81 SW5       30.16S WCI  25
IRONWOOD       CLOUDY    28  28 100 S6        30.08F WCI  22
$$

ABBREVIATIONS USED IN REMARKS
   TC - TEMPERATURE IN CELSIUS
  WCI - WIND CHILL INDEX
   HX - HEAT INDEX
  VSB - VISIBILITY



USA.gov is the U.S. government's official web portal to all federal, state and local government web resources and services.